Location: *
(48.4333°N, 5.0333°W)
Time: 10:07:04
(UTC+00:00)

Cosmos 1812 Rocket - Pass Details

Date: 09 April 2020
Orbit: 606 x 631 km, 82.5° (Epoch: 04 June)

Event Time Altitude Azimuth Distance (km) Brightness Sun altitude
Exits shadow 21:02:26 29° 175° (S) 1,113 4.5 -18.7°
Maximum altitude 21:04:33 72° 97° (E) 644 3.4 -19.0°
Drops below altitude 10° 21:08:53 10° 13° (NNE) 1,969 6.4 -19.5°
Sets 21:11:07 0° 12° (NNE) 2,878 7.4 -19.8°
